Location: La Silve
(44.2414°N, 5.8889°E)
Time: 06:56:41
(UTC+00:00)

CENTAUR R/B - Pass Details

Date: 12 April 2021
Orbit: 742 x 1446 km, 63.4° (Epoch: 18 April)

Event Time Altitude Azimuth Distance (km) Brightness Sun altitude
Rises 21:41:22 0° 311° (NW) 4,321 6.9 -30.7°
Reaches altitude 10° 21:45:10 10° 294° (WNW) 3,436 6.0 -31.0°
Maximum altitude 21:50:33 19° 255° (WSW) 2,896 5.0 -31.5°
Enters shadow 21:54:37 14° 224° (SW) 3,275 5.1 -31.9°
